[[{"header":{"parameterUnit":"m.s-1","parameterCategory":1,"la1":30.2991,"la2":30.254,"lo1":-89.0895,"lo2":-89.0444,"dy":0.0017,"dx":0.0017,"nx":28,"ny":28,"refTime":"2023-09-14T09:00:00:Z","depth":0,"parameterNumber":2,"parameterNumberName":"U-component_of_WINDS"},"data":[0,0,0,0,0,0,0,0,0,0,0,0,0,0,0,0,0,0,0,0,0,0,0,0,0,0,0,0,0,0,0,0,0,0,0,0,0,0,0,0,0,0,0,0,0,0,0,0,0,0,0,0,0,0,0,0,0,0,0.2183,0.2186,0,0.2419,0.2422,0.2425,0.2575,0.2576,0.2577,0.2578,0.2818,0.2823,0.2828,0,0,0,0,0,0,0,0,0,0,0,0,0,0.186,0.1865,0.2183,0.2186,0.2189,0.2419,0.2422,0.2425,0.2575,0.2576,0.2577,0.2578,0.2816,0.2822,0.2829,0,0,0,0,0,0,0,0,0,0,0,0,0,0.2039,0.1867,0.2182,0.2291,0.2303,0.2418,0.2422,0.2426,0.2575,0.2576,0.2577,0.2579,0.2814,0.2822,0.283,0.2854,0,0,0.2855,0.2859,0,0,0,0,0,0,0,0,0.2028,0.205,0.2272,0.2284,0.2298,0.2469,0.2397,0.257,0.2574,0.2472,0.2578,0.2579,0.27,0.2718,0.2759,0.2866,0.2876,0.2856,0.2861,0.2865,0.2867,0,0,0,0,0,0,0,0.2016,0.2041,0.2277,0.2275,0.2291,0.2328,0.2355,0.243,0.2575,0.2481,0.2492,0.2518,0.2708,0.2751,0.2766,0.2879,0.2856,0.2863,0.2868,0.2872,0.3019,0.3018,0,0,0,0,0,0,0.1986,0.203,0.2269,0.2284,0.2164,0.2333,0.2363,0.2413,0.2575,0.2601,0.2517,0.2524,0.2736,0.2756,0.2775,0.2815,0.2865,0.2872,0.2877,0.302,0.3019,0.3017,0,0,0,0,0,0,0.1979,0.2006,0.226,0.216,0.2195,0.2337,0.2392,0.2417,0.246,0.2603,0.2629,0.2534,0.2738,0.2763,0.2834,0.2825,0.2876,0.2884,0.3021,0.3019,0.3018,0.2894,0,0,0,0,0,0,0.1969,0.2003,0.2014,0.2159,0.22,0.2314,0.2391,0.242,0.2475,0.2487,0.2626,0.265,0.2741,0.2821,0.2842,0.2838,0.289,0.3022,0.302,0.3018,0.2899,0.2888,0.2878,0,0,0,0,0,0.1957,0.1969,0.2013,0.2041,0.2216,0.2313,0.2337,0.2441,0.2473,0.2485,0.2577,0.2646,0.2823,0.2827,0.2852,0.285,0.3023,0.3021,0.3019,0.2904,0.289,0.2879,0,0,0,0,0,0,0.1817,0.199,0.2041,0.21,0.2191,0.2338,0.2357,0.2423,0.2506,0.2514,0.264,0.267,0.2727,0.2797,0.2797,0.2883,0.2931,0.2934,0.2835,0.2824,0.2813,0.2795,0.2897,0,0,0,0,0,0.1793,0.1858,0.2005,0.2043,0.2086,0.2213,0.2259,0.2332,0.2431,0.247,0.2567,0.2659,0.2737,0.2784,0.2863,0.2911,0.2943,0.2922,0.2911,0.2902,0.2902,0.2933,0.2925,0.3009,0.3009,0.3009,0,0,0.1744,0.1847,0.188,0.2018,0.2097,0.2161,0.2244,0.2308,0.2357,0.248,0.2552,0.2626,0.2738,0.2797,0.2829,0.2857,0.2887,0.2899,0.2891,0.2896,0.293,0.2921,0.2914,0.3008,0.3008,0.3008,0,0,0.1688,0.1772,0.1813,0.1891,0.201,0.2095,0.2104,0.2242,0.2296,0.2372,0.2465,0.2525,0.2654,0.273,0.2786,0.276,0.2826,0.2782,0.2727,0.2755,0.2749,0.2743,0.2734,0.2729,0.2782,0.2782,0.2781,0,0.1612,0.1712,0.1825,0.1884,0.1942,0.2058,0.21,0.217,0.2308,0.2345,0.2375,0.254,0.2624,0.2703,0.2696,0.2738,0.2752,0.2766,0.2741,0.2737,0.2733,0.2725,0.2721,0.2775,0.2776,0.2777,0.2777,0,0.1613,0.1681,0.17,0.1831,0.1891,0.1941,0.2062,0.2109,0.2177,0.2258,0.2334,0.2439,0.254,0.2565,0.2631,0.2653,0.2667,0.2717,0.2768,0.2717,0.2712,0.271,0.2766,0.2769,0.2771,0.2772,0,0,0.1472,0.1667,0.1672,0.1733,0.1874,0.1929,0.1984,0.2085,0.2123,0.2215,0.2264,0.2372,0.2419,0.2482,0.2559,0.2584,0.2556,0.2632,0.2636,0.2613,0.2586,0.2546,0.2541,0.2602,0.2602,0.2602,0.2577,0,0.1436,0.1542,0.1646,0.1715,0.1779,0.1891,0.194,0.2031,0.2108,0.2174,0.2261,0.2335,0.2393,0.2431,0.2461,0.2553,0.2552,0.2556,0.2648,0.265,0.2615,0.2539,0.2497,0.2468,0.2575,0.2575,0.2575,0,0.1407,0.1495,0.157,0.1705,0.1736,0.1778,0.1879,0.1941,0.2046,0.2102,0.2172,0.2254,0.2318,0.2363,0.2453,0.2453,0.2498,0.2548,0.255,0.2561,0.2608,0.2546,0.2461,0.2456,0.2573,0.2573,0.2573,0,0.1296,0.1433,0.1496,0.1545,0.1705,0.1731,0.1799,0.1906,0.196,0.2049,0.2085,0.2179,0.223,0.2301,0.2406,0.2429,0.2485,0.2539,0.2532,0.2529,0.2537,0.2534,0.2455,0.2567,0.2567,0.2567,0.2567,0,0.1244,0.1285,0.1448,0.1486,0.1536,0.1656,0.1702,0.178,0.1875,0.193,0.2032,0.2082,0.2218,0.2284,0.2366,0.2428,0.2451,0.2496,0.2518,0.2487,0.248,0.2516,0.252,0.2566,0.2566,0.2566,0.2567,0,0.1127,0.1238,0.1314,0.146,0.1497,0.1527,0.1652,0.1693,0.1778,0.1847,0.187,0.2002,0.2085,0.2197,0.2315,0.237,0.2421,0.2455,0.2384,0.2397,0.2383,0.2382,0.2323,0.2321,0.2433,0.2432,0.2431,0,0.1085,0.112,0.127,0.1314,0.1379,0.145,0.1506,0.1626,0.168,0.1804,0.183,0.1921,0.2,0.2128,0.2234,0.2325,0.2361,0.2334,0.2375,0.2343,0.236,0.2356,0.2359,0.2323,0.2321,0.232,0.2319,0,0.0999,0.1053,0.113,0.1227,0.1291,0.1373,0.1459,0.149,0.1628,0.1684,0.177,0.1831,0.1952,0.2041,0.2146,0.2216,0.229,0.2305,0.2309,0.2276,0.2233,0.2255,0.2356,0.2306,0.2307,0.2308,0.2309,0.2309,0.0918,0.0954,0.1066,0.1148,0.1226,0.1305,0.1351,0.1442,0.1517,0.1625,0.1691,0.1775,0.1881,0.203,0.2097,0.2164,0.2193,0.2197,0.2198,0.2197,0.2186,0.2224,0.2183,0.2184,0.2185,0.2185,0.2185,0,0.0836,0.0914,0.0989,0.1107,0.1173,0.1238,0.1338,0.1387,0.146,0.1553,0.163,0.1729,0.1816,0.193,0.2026,0.2057,0.2093,0.2078,0.2076,0.2091,0.2155,0.2143,0.2047,0.2047,0.2047,0.2047,0.2047,0.2047,0.0801,0.0866,0.0933,0.1037,0.1115,0.1198,0.1249,0.1322,0.1398,0.1504,0.1578,0.1652,0.1754,0.1858,0.1941,0.1972,0.2002,0.1975,0.2017,0.2074,0.2086,0.2098,0.2087,0.1981,0.1981,0.1947,0.1947,0.1946]},{"header":{"parameterUnit":"m.s-1","parameterCategory":1,"la1":30.2991,"la2":30.254,"lo1":-89.0895,"lo2":-89.0444,"dy":0.0017,"dx":0.0017,"nx":28,"ny":28,"refTime":"2023-09-14T09:00:00:Z","depth":0,"parameterNumber":3,"parameterNumberName":"V-component_of_WINDS"},"data":[0,0,0,0,0,0,0,0,0,0,0,0,0,0,0,0,0,0,0,0,0,0,0,0,0,0,0,0,0,0,0,0,0,0,0,0,0,0,0,0,0,0,0,0,0,0,0,0,0,0,0,0,0,0,0,0,0,0,-2.0687,-2.0687,0,-2.0746,-2.0746,-2.0747,-2.074,-2.0739,-2.0738,-2.0737,-2.0792,-2.0795,-2.0797,0,0,0,0,0,0,0,0,0,0,0,0,0,-2.0563,-2.0565,-2.0687,-2.0687,-2.0688,-2.0746,-2.0746,-2.0747,-2.074,-2.0739,-2.0737,-2.0736,-2.0792,-2.0794,-2.0797,0,0,0,0,0,0,0,0,0,0,0,0,0,-2.0619,-2.0566,-2.0687,-2.0692,-2.0693,-2.0745,-2.0746,-2.0747,-2.074,-2.0739,-2.0737,-2.0736,-2.0791,-2.0794,-2.0798,-2.0848,0,0,-2.0809,-2.081,0,0,0,0,0,0,0,0,-2.0616,-2.0623,-2.069,-2.0691,-2.0693,-2.0734,-2.0723,-2.0781,-2.074,-2.0722,-2.0737,-2.0735,-2.0774,-2.0779,-2.0793,-2.0851,-2.0853,-2.0809,-2.0811,-2.0813,-2.0814,0,0,0,0,0,0,0,-2.0612,-2.0621,-2.071,-2.0691,-2.0693,-2.0689,-2.0696,-2.0734,-2.0755,-2.0723,-2.0723,-2.073,-2.0774,-2.0789,-2.0794,-2.0854,-2.0809,-2.0812,-2.0814,-2.0815,-2.0954,-2.0956,0,0,0,0,0,0,-2.0607,-2.0618,-2.0708,-2.0712,-2.065,-2.0693,-2.07,-2.0722,-2.0754,-2.0758,-2.0731,-2.073,-2.0784,-2.079,-2.0796,-2.0856,-2.0812,-2.0816,-2.0818,-2.0953,-2.0954,-2.0956,0,0,0,0,0,0,-2.0605,-2.0616,-2.0706,-2.0665,-2.0676,-2.0696,-2.0721,-2.0724,-2.0739,-2.0761,-2.0764,-2.0743,-2.0783,-2.0791,-2.0835,-2.0857,-2.0817,-2.0821,-2.0951,-2.0953,-2.0955,-2.0976,0,0,0,0,0,0,-2.0601,-2.0615,-2.0635,-2.0665,-2.0678,-2.0745,-2.0723,-2.0726,-2.0746,-2.0744,-2.0773,-2.0776,-2.0783,-2.083,-2.0839,-2.0862,-2.0823,-2.0949,-2.0952,-2.0955,-2.0974,-2.0979,-2.0984,0,0,0,0,0,-2.0597,-2.0638,-2.0636,-2.0647,-2.0704,-2.0747,-2.0754,-2.0762,-2.0748,-2.0767,-2.0781,-2.0775,-2.0854,-2.0834,-2.0844,-2.0869,-2.0947,-2.0951,-2.0954,-2.0971,-2.0978,-2.0984,0,0,0,0,0,0,-2.0608,-2.0642,-2.064,-2.0693,-2.0717,-2.0745,-2.0771,-2.0769,-2.0796,-2.0794,-2.0801,-2.0807,-2.0852,-2.0865,-2.0842,-2.0918,-2.0898,-2.0904,-2.0908,-2.0915,-2.0919,-2.0915,-2.0826,0,0,0,0,0,-2.0617,-2.0651,-2.0677,-2.0721,-2.0733,-2.075,-2.0769,-2.0773,-2.0798,-2.0808,-2.0825,-2.0848,-2.0877,-2.0897,-2.0926,-2.0976,-2.0981,-2.0997,-2.1003,-2.1007,-2.1011,-2.1037,-2.1044,-2.0968,-2.0968,-2.0968,0,0,-2.0635,-2.0658,-2.0678,-2.0724,-2.0743,-2.0776,-2.0759,-2.0794,-2.0818,-2.0812,-2.0855,-2.0869,-2.0895,-2.0942,-2.0963,-2.0954,-2.1033,-2.1011,-2.1014,-2.1016,-2.1041,-2.1048,-2.1055,-2.097,-2.097,-2.0969,0,0,-2.0685,-2.0706,-2.0744,-2.0764,-2.0794,-2.0805,-2.0814,-2.0843,-2.0852,-2.0896,-2.0892,-2.0919,-2.0971,-2.099,-2.1006,-2.1062,-2.1057,-2.1071,-2.1097,-2.1122,-2.1128,-2.1133,-2.1152,-2.1159,-2.1076,-2.1076,-2.1076,0,-2.0703,-2.0753,-2.0763,-2.0799,-2.0819,-2.0817,-2.0855,-2.0873,-2.091,-2.0923,-2.0913,-2.0977,-2.0994,-2.1045,-2.1059,-2.1073,-2.1082,-2.1067,-2.1127,-2.1132,-2.1137,-2.1155,-2.1162,-2.1077,-2.1077,-2.1077,-2.1077,0,-2.0773,-2.0808,-2.0835,-2.0873,-2.0895,-2.0932,-2.0946,-2.0967,-2.0969,-2.0981,-2.1024,-2.1045,-2.1078,-2.109,-2.1093,-2.1141,-2.1134,-2.1125,-2.1105,-2.1146,-2.1163,-2.117,-2.1079,-2.1079,-2.1078,-2.1078,0,0,-2.0831,-2.0874,-2.0883,-2.09,-2.0933,-2.0959,-2.0995,-2.1029,-2.1046,-2.1072,-2.1101,-2.1145,-2.1136,-2.1155,-2.1159,-2.1181,-2.1223,-2.1169,-2.117,-2.1177,-2.1276,-2.1281,-2.1289,-2.122,-2.1221,-2.1223,-2.1273,0,-2.0882,-2.0947,-2.0957,-2.1014,-2.1045,-2.1044,-2.1075,-2.1098,-2.1109,-2.1136,-2.1149,-2.1179,-2.1167,-2.1178,-2.12,-2.1213,-2.1242,-2.121,-2.1245,-2.1246,-2.1237,-2.1298,-2.1304,-2.1351,-2.128,-2.1281,-2.1282,0,-2.0951,-2.098,-2.104,-2.1068,-2.1082,-2.111,-2.114,-2.1167,-2.1192,-2.1199,-2.122,-2.1221,-2.1256,-2.1236,-2.1283,-2.1261,-2.1276,-2.1284,-2.1286,-2.1289,-2.1265,-2.1301,-2.1366,-2.1373,-2.1292,-2.1292,-2.1291,0,-2.0985,-2.1039,-2.1081,-2.1096,-2.113,-2.115,-2.1165,-2.1189,-2.1208,-2.1234,-2.1246,-2.1276,-2.1292,-2.1314,-2.1323,-2.1308,-2.137,-2.135,-2.1374,-2.1374,-2.1386,-2.1385,-2.1454,-2.1399,-2.1399,-2.1398,-2.1398,0,-2.104,-2.1076,-2.1097,-2.1123,-2.1163,-2.1174,-2.1213,-2.1227,-2.1248,-2.1275,-2.1276,-2.1302,-2.1312,-2.1339,-2.1346,-2.1383,-2.1391,-2.1396,-2.1397,-2.1395,-2.1394,-2.1404,-2.14,-2.14,-2.14,-2.14,-2.1399,0,-2.1084,-2.11,-2.1146,-2.1175,-2.1183,-2.1211,-2.1236,-2.126,-2.1272,-2.1306,-2.1315,-2.1333,-2.1364,-2.1375,-2.1413,-2.1418,-2.1461,-2.146,-2.1452,-2.1452,-2.1475,-2.1472,-2.1551,-2.1562,-2.1501,-2.1502,-2.1502,0,-2.1118,-2.1146,-2.1179,-2.1198,-2.1214,-2.1245,-2.1265,-2.1276,-2.1296,-2.1327,-2.1347,-2.1379,-2.1405,-2.1454,-2.1469,-2.1498,-2.1497,-2.1522,-2.1501,-2.1498,-2.1495,-2.1493,-2.1495,-2.1526,-2.1526,-2.1527,-2.1527,0,-2.1175,-2.1182,-2.1211,-2.1244,-2.1268,-2.1293,-2.1318,-2.1333,-2.1347,-2.137,-2.1403,-2.1423,-2.1462,-2.1493,-2.1522,-2.1535,-2.1533,-2.1534,-2.1541,-2.1539,-2.1533,-2.1535,-2.1462,-2.1532,-2.1532,-2.1531,-2.1531,-2.1531,-2.1214,-2.1239,-2.1266,-2.1298,-2.1318,-2.1341,-2.1365,-2.1381,-2.1409,-2.1443,-2.1447,-2.1482,-2.1505,-2.1545,-2.156,-2.1586,-2.1579,-2.1589,-2.1591,-2.1593,-2.1594,-2.153,-2.1591,-2.1591,-2.1591,-2.1591,-2.1591,0,-2.127,-2.1288,-2.1318,-2.1353,-2.1378,-2.1376,-2.1403,-2.1424,-2.1455,-2.1478,-2.1504,-2.1541,-2.1571,-2.1589,-2.1618,-2.1635,-2.1635,-2.1642,-2.164,-2.1643,-2.16,-2.159,-2.1642,-2.1642,-2.1642,-2.1642,-2.1642,-2.1642,-2.1302,-2.1343,-2.1353,-2.1404,-2.1421,-2.1456,-2.1471,-2.1492,-2.151,-2.1552,-2.1578,-2.159,-2.161,-2.1641,-2.1668,-2.1672,-2.1682,-2.169,-2.1693,-2.1652,-2.1646,-2.1641,-2.1632,-2.1693,-2.1693,-2.1735,-2.1735,-2.1735]}]]